Regional Weather Roundup
Issued by NWS

Home | Current Version | Previous Version | Text Only | Print | Product List | Glossary Off
Versions: 1 2 3 4 5 6 7 8 9 10 11 12 13 14 15 16 17 18 19 20 21 22 23 24 25 26 27 28 29 30 31 32 33 34 35 36 37 38 39 40 41 42 43 44 45 46 47 48 49 50

000
ASUS45 KPSR 201700
RWRAZ

PRELIMINARY ARIZONA REGIONAL HOURLY WEATHER ROUNDUP
NATIONAL WEATHER SERVICE PHOENIX AZ
1000 AM MST WED AUG 20 2014

NOTE: FAIR INDICATES FEW OR NO CLOUDS BELOW 12,000 FEET WITH NO
SIGNIFICANT WEATHER AND/OR OBSTRUCTIONS TO VISIBILITY.

AZZ001>003-036-201800-
NORTHWEST ARIZONA

CITY           SKY/WX    TMP DP  RH WIND       PRES   REMARKS
KINGMAN        SUNNY     78  54  43 CALM      30.05R
$$

AZZ004>008-015-016-018-201800-
NORTH CENTRAL ARIZONA

CITY           SKY/WX    TMP DP  RH WIND       PRES   REMARKS
GRAND CANYON   MOSUNNY   61  55  81 SW10G17   30.25S
WILLIAMS       SUNNY     66  50  55 SW6       30.31S
PRESCOTT       SUNNY     72  55  55 VRB3      30.16S
FLAGSTAFF      NOT AVBL
PAYSON         SUNNY     70  55  60 VRB5      30.19S
PAGE           SUNNY     75  56  51 NE3       30.07S
$$

AZZ009>014-017-201800-
NORTHEAST ARIZONA

CITY           SKY/WX    TMP DP  RH WIND       PRES   REMARKS
WINSLOW        NOT AVBL
SAINT JOHNS    MOSUNNY   73  52  47 NW13G20   30.19R
WINDOW ROCK    MOSUNNY   72  43  35 N12       30.23S
$$

AZZ023-201800-
GREATER PHOENIX AREA

CITY           SKY/WX    TMP DP  RH WIND       PRES   REMARKS
PHOENIX        MOSUNNY   86  65  49 S8        29.93R
GLENDALE       MOSUNNY   84  68  58 E5        29.95R
DEER VALLEY    SUNNY     83  64  52 SE6       29.95R
SCOTTSDALE     SUNNY     84  64  50 SE6       29.97R
MESA-GATEWAY   MOSUNNY   84  63  48 E3        29.97S
CHANDLER       MOSUNNY   86  64  48 VRB5      29.95R
$$

AZZ027-028-201800-
SOUTHWEST MARICOPA COUNTY AND PINAL COUNTY

CITY           SKY/WX    TMP DP  RH WIND       PRES   REMARKS
CASA GRANDE    SUNNY     86  61  42 CALM      29.96S
GILA BEND      SUNNY     91  57  31 CALM      29.92R
$$

AZZ503-504-507>509-201800-
SOUTHEAST ARIZONA

CITY           SKY/WX    TMP DP  RH WIND       PRES   REMARKS
TUCSON         SUNNY     81  63  54 VRB5      30.05R
RYAN FIELD       N/A     82  63  51 CALM      30.03R
NOGALES        SUNNY     78  62  57 VRB3      30.11R
SAFFORD        SUNNY     74  65  73 CALM      30.06R
$$

AZZ020-021-025-026-031-201800-
SOUTHWEST ARIZONA

CITY           SKY/WX    TMP DP  RH WIND       PRES   REMARKS
YUMA           PTSUNNY   93  60  33 SE12      29.84R
$$

CAZ031-033-041-043-047-048-061-201800-
SOUTHERN CALIFORNIA

CITY           SKY/WX    TMP DP  RH WIND       PRES   REMARKS
DOWNTOWN L.A.  MOSUNNY   74  59  59 CALM      29.94R
L.A. AIRPORT   PTSUNNY   73  59  61 VRB5      29.95R
SAN DIEGO      CLOUDY    72  59  63 VRB3      29.95S THUNDER
BURBANK        PTSUNNY   71  57  61 VRB6      29.95R
ONTARIO        MOSUNNY   73  59  61 VRB3      29.96R
RIVERSIDE      MOSUNNY   72  60  66 NE5       29.96R
PALM SPRINGS   CLOUDY    82  55  39 N15       29.89R
EL CENTRO NAS  PTSUNNY   91  38  15 VRB5      29.84R
IMPERIAL       SUNNY     90  41  18 VRB3      29.83R
BLYTHE         MOSUNNY   93  49  22 S15       29.85R
$$

NVZ020-UTZ003-201800-
SOUTHERN NEVADA-UTAH

CITY           SKY/WX    TMP DP  RH WIND       PRES   REMARKS
LAS VEGAS      NOT AVBL
SALT LAKE CITY MOSUNNY   70  55  59 S15G22    30.01R
$$

NMZ009-TXZ055-201800-
NEW MEXICO-WEST TEXAS

CITY           SKY/WX    TMP DP  RH WIND       PRES   REMARKS
ALBUQUERQUE    MOSUNNY   76  52  43 VRB7      30.12S
EL PASO        MOSUNNY   79  57  46 W10       30.03S
$$


........................KEY........................
SKY/WX - SKY CONDITION/WEATHER
TMP    - TEMPERATURE IN FAHRENHEIT
DP     - DEW POINT IN FAHRENHEIT
RH     - RELATIVE HUMIDITY IN PERCENT
WIND   - DIRECTION AND SPEED IN MILES PER HOUR (MPH)
VRB    - VARIABLE WIND DIRECTION
PRES   - MEAN SEA LEVEL PRESSURE IN INCHES OF MERCURY
         F - FALLING PRESSURE   R - RISING PRESSURE
         S - STEADY PRESSURE
VSB    - VISIBILITY IN MILES
HX     - HEAT INDEX IN FAHRENHEIT
WCI    - WIND CHILL INDEX IN FAHRENHEIT
TC     - TEMPERATURE IN CELSIUS WHICH IS ALSO KNOWN AS
         TEMPERATURE IN CENTIGRADE
AFB    - AIR FORCE BASE
         LUKE AFB IS LUKE AIR FORCE BASE
         DAVIS-MONTHAN IS DAVIS-MONTHAN AIR FORCE BASE
NAS    - NAVAL AIR STATION
         EL CENTRO NAS IS EL CENTRO NAVAL AIR STATION
N/A    - NOT AVAILABLE


USA.gov is the U.S. government's official web portal to all federal, state and local government web resources and services.